Regional Weather Roundup
Issued by NWS

Home | Current Version | Previous Version | Graphics & Text | Print | Product List | Glossary On
Versions: 1 2 3 4 5 6 7 8 9 10 11 12 13 14 15 16 17 18 19 20 21 22 23 24 25 26 27 28 29 30 31 32 33 34 35 36 37 38 39 40 41 42 43 44 45 46 47 48 49 50
000
ASUS45 KSLC 191510
RWRUT

UTAH REGIONAL WEATHER ROUNDUP
NATIONAL WEATHER SERVICE SALT LAKE CITY UT
900 AM MDT FRI SEP 19 2014

UTZ001>011-023>025-191600-

NORTHERN UTAH

CITY           SKY/WX    TMP DP  RH WIND       PRES   REMARKS
HILL AFB       NOT AVBL
LOGAN          SUNNY     58  57  97 CALM      30.08R
OGDEN          SUNNY     68  53  58 NE9       30.04R
PROVO AIRPORT  MOSUNNY   64  57  77 CALM      30.06R
SALT LAKE CITY MOSUNNY   65  58  78 SW3       30.03R
VERNAL         SUNNY     67  49  52 VRB3      30.08S
WENDOVER       MOSUNNY   66  45  45 W9        30.06R
HEBER CITY     MOSUNNY   59  50  72 CALM      30.13S
WEST JORDAN    SUNNY     66  55  68 CALM      30.06R

$$

UTZ012>022-026-027-191600-

SOUTHERN UTAH

CITY           SKY/WX    TMP DP  RH WIND       PRES   REMARKS
BRYCE CANYON   CLOUDY    55  48  77 W5        30.23R
CEDAR CITY     MOSUNNY   66  46  48 CALM      30.09R
MILFORD        MOSUNNY   68  51  54 S5        30.06R
MOAB/CYNLANDS  SUNNY     72  42  34 SE6       29.99R
PRICE          SUNNY     70  43  37 CALM      30.09R
ST GEORGE      MOSUNNY   75  52  43 CALM      29.94R
KANAB            N/A     66  50  55 N5        30.09R

$$

REGIONAL REPORTS     COLORADO/ARIZONA

CITY           SKY/WX    TMP DP  RH WIND       PRES   REMARKS
CRAIG, CO      SUNNY     58  43  57 N3        30.17R
GRAND JUNCTION MOSUNNY   67  44  43 SE10      30.04R
RIFLE          SUNNY     57  46  66 W5        30.12R
MONTROSE       SUNNY     65  45  48 CALM      30.12R
CORTEZ         SUNNY     61  45  55 CALM      30.13S
PAGE, AZ       MOSUNNY   82  47  29 CALM      29.99R
GRAND CANYON   PTSUNNY   59  54  83 CALM      30.19R
KINGMAN        SUNNY     75  51  43 SE10      29.95R
FLAGSTAFF      CLOUDY    61  57  87 SW7       30.20R

$$

REGIONAL REPORTS    NEVADA/IDAHO/WYOMING

CITY           SKY/WX    TMP DP  RH WIND       PRES   REMARKS
LAS VEGAS, NV  MOSUNNY   78  47  33 S10       29.83R
ELY            SUNNY     53  40  61 S9        30.16R
ELKO           SUNNY     51  46  83 CALM      30.11R HAZE
POCATELLO, ID  SUNNY     60  47  61 SW14      30.09R
BURLEY         SUNNY     60  46  59 SW6       30.09R
EVANSTON, WY   MOSUNNY   56  49  77 N7        30.20R
ROCK SPRINGS   PTSUNNY   60  47  61 W9        30.17R

$$



USA.gov is the U.S. government's official web portal to all federal, state and local government web resources and services.